Powrót do katalogu

COSMOS 970 DEB

AktywnyLEO
NORAD 10578·DEBRIS·🇷🇺 Russia

Wystrzelony Dec 21, 1977 z Baikonur Cosmodrome

Loading…

Następne Przeloty (najbliższe 24 godziny)

TLE

ŚwieżeSource: Space-Track

Epoka: Sep 14, 2026, 00:58 UTC

1 10578U 77121V   26257.04041851  .00000080  00000-0  17486-3 0  9991
2 10578  65.7687 111.9353 0135625 353.6889 157.4153 13.68638795429499

Śledź COSMOS 970 DEB w czasie rzeczywistym z AllMySat

Download on the App Store